Regional Weather Roundup
Issued by NWS Binghamton, NY

Home | Current Version | Previous Version | Text Only | Print | Product List | Glossary On
Versions: 1 2 3 4 5 6 7 8 9 10 11 12 13 14 15 16 17 18 19 20 21 22 23 24 25 26 27
000
ASUS41 KBGM 182210
RWRBGM

REGIONAL WEATHER ROUNDUP
NATIONAL WEATHER SERVICE BINGHAMTON NY
500 PM EST WED JAN 18 2017

Note: "fair" indicates few or no clouds below 12,000 feet with no
significant weather and/or obstructions to visibility.

* = Station(s) that does not report precipitation, such as rain,
snow, etc, also no thunder or fog.

NYZ009-015>018-022>025-036-037-044>046-055>057-062-182300
...Central New York...

CITY           SKY/WX    TMP DP  RH WIND       PRES   REMARKS
Binghamton     CLOUDY    34  34 100 NW6       29.97R FOG     WCI  29
Cortland       CLOUDY    36  36 100 W3        29.99R FOG
Dansville      CLOUDY    40  32  73 NW6       30.02R
Elmira         CLOUDY    41  33  73 W6        30.00R
Ithaca         CLOUDY    36  35  96 NW3       30.01R FOG
Monticello     MOCLDY    34  32  93 NW5       29.99R WCI  30
Penn Yan       CLOUDY    39  31  72 W7        30.01R WCI  34
Rome           CLOUDY    36  36 100 W7        30.01R FOG     WCI  30
Syracuse       LGT RAIN  36  36 100 W8        30.01R FOG     WCI  30
$$

PAZ038>040-043-044-047-048-072-182300
...Northeast Pennsylvania...

CITY           SKY/WX    TMP DP  RH WIND       PRES   REMARKS
Hazleton       DRIZZLE   37  37 100 NW6       30.00R WCI  33
Scranton       CLOUDY    40  39  97 CALM      30.00R FOG
$$
&&
KEY
WCI = Wind Chill Index
VSB = Visibility
HX  = Heat Index
$$




USA.gov is the U.S. government's official web portal to all federal, state and local government web resources and services.